sat.trackr.live / text

‹ back to catalog

STARLINK-35689

NORAD 66494 · 2025-263K

PAYLOAD ACTIVE UNKNOWN

§ Identity

Operator
Country
US
Launch date
2025-11-15
Launch site
AFETR
Launch vehicle
Mass (kg)
RCS (m²)

Purposes: comms

External: N2YO · Heavens-Above · Gunter

§ Orbital elements

Epoch: 2026-05-24T20:37:05.623968Z

Period
94.27 min
Inclination
43.0004°
Eccentricity
0.0001742
Mean motion
15.27592428 rev/d
Perigee alt
481.8 km
Apogee alt
484.2 km
Semi-major
6,861.1 km
B*
9.7999e-4
RAAN
280.9186°
Arg perigee
270.5318°
Mean anomaly
89.5334°
Rev number
3,054

§ Raw data

STARLINK-356891 66494U 25263K   26144.85909287  .00026814  00000+0  97999-3 0  99982 66494  43.0004 280.9186 0001742 270.5318  89.5334 15.27592428 30545

JSON: /api/v1/satellites/66494 · /tle

For live sub-satellite position, see the globe view (requires WebGL).

§ Visibility from observer

Set your observer location to see the next 7 days of passes ≥ 10°. The values pass through the URL so the page stays shareable.

No JS? Fill the form by hand. The geolocation button needs JavaScript.